datetime,discharge,stage
1/1/2017 0:00,10700,7.91
1/1/2017 0:15,10600,7.88
1/1/2017 0:30,10600,7.86
1/1/2017 0:45,10600,7.87
1/1/2017 1:00,10600,7.84
1/1/2017 1:15,10500,7.83
1/1/2017 1:30,10500,7.81
1/1/2017 1:45,10500,7.81
1/1/2017 2:00,10400,7.77
1/1/2017 2:15,10400,7.77
1/1/2017 2:30,10400,7.75
1/1/2017 2:45,10400,7.73
1/1/2017 3:00,10300,7.71
1/1/2017 3:15,10300,7.69
1/1/2017 3:30,10200,7.67
1/1/2017 3:45,10200,7.65
1/1/2017 4:00,10200,7.65
1/1/2017 4:15,10100,7.62
1/1/2017 4:30,10100,7.6
1/1/2017 4:45,10100,7.58
1/1/2017 5:00,10000,7.56
1/1/2017 5:15,9990,7.54
1/1/2017 5:30,9960,7.52
1/1/2017 5:45,9920,7.5
1/1/2017 6:00,9880,7.48
1/1/2017 6:15,9840,7.46
1/1/2017 6:30,9770,7.42
1/1/2017 6:45,9750,7.41
1/1/2017 7:00,9710,7.39
1/1/2017 7:15,9680,7.37
1/1/2017 7:30,9660,7.36
1/1/2017 7:45,9580,7.32
1/1/2017 8:00,9560,7.31
1/1/2017 8:15,9540,7.3
1/1/2017 8:30,9490,7.27
1/1/2017 8:45,9450,7.25
1/1/2017 9:00,9380,7.21
1/1/2017 9:15,9380,7.21
1/1/2017 9:30,9340,7.19
1/1/2017 9:45,9290,7.16
1/1/2017 10:00,9250,7.14
1/1/2017 10:15,9210,7.12
1/1/2017 10:30,9190,7.1
1/1/2017 10:45,9140,7.07
1/1/2017 11:00,9080,7.04
1/1/2017 11:15,9050,7.02
1/1/2017 11:30,9030,7.01
1/1/2017 11:45,8990,6.99
1/1/2017 12:00,8920,6.95
1/1/2017 12:15,8870,6.92
1/1/2017 12:30,8850,6.91
1/1/2017 12:45,8830,6.9
1/1/2017 13:00,8770,6.87
1/1/2017 13:15,8740,6.85
1/1/2017 13:30,8680,6.82
1/1/2017 13:45,8650,6.8
1/1/2017 14:00,8590,6.77
1/1/2017 14:15,8560,6.75
1/1/2017 14:30,8540,6.74
1/1/2017 14:45,8490,6.71
1/1/2017 15:00,8450,6.69
1/1/2017 15:15,8420,6.67
1/1/2017 15:30,8360,6.64
1/1/2017 15:45,8310,6.61
1/1/2017 16:00,8290,6.6
1/1/2017 16:15,8220,6.56
1/1/2017 16:30,8190,6.54
1/1/2017 16:45,8130,6.51
1/1/2017 17:00,8080,6.48
1/1/2017 17:15,8060,6.47
1/1/2017 17:30,8010,6.44
1/1/2017 17:45,7960,6.41
1/1/2017 18:00,7920,6.39
1/1/2017 18:15,7890,6.37
1/1/2017 18:30,7820,6.33
1/1/2017 18:45,7800,6.32
1/1/2017 19:00,7750,6.29
1/1/2017 19:15,7710,6.27
1/1/2017 19:30,7700,6.26
1/1/2017 19:45,7640,6.23
1/1/2017 20:00,7630,6.22
1/1/2017 20:15,7590,6.2
1/1/2017 20:30,7560,6.18
1/1/2017 20:45,7540,6.17
1/1/2017 21:00,7510,6.15
1/1/2017 21:15,7490,6.14
1/1/2017 21:30,7440,6.11
1/1/2017 21:45,7440,6.11
1/1/2017 22:00,7420,6.1
1/1/2017 22:15,7400,6.09
1/1/2017 22:30,7370,6.07
1/1/2017 22:45,7350,6.06
1/1/2017 23:00,7320,6.04
1/1/2017 23:15,7300,6.03
1/1/2017 23:30,7320,6.04
1/1/2017 23:45,7290,6.02
1/2/2017 0:00,7250,6
1/2/2017 0:15,7250,6
1/2/2017 0:30,7230,5.99
1/2/2017 0:45,7220,5.98
1/2/2017 1:00,7200,5.97
1/2/2017 1:15,7180,5.96
1/2/2017 1:30,7180,5.96
1/2/2017 1:45,7150,5.94
1/2/2017 2:00,7130,5.93
1/2/2017 2:15,7150,5.94
1/2/2017 2:30,7120,5.92
1/2/2017 2:45,7120,5.92
1/2/2017 3:00,7080,5.9
1/2/2017 3:15,7070,5.89
1/2/2017 3:30,7070,5.89
1/2/2017 3:45,7050,5.88
1/2/2017 4:00,7050,5.88
1/2/2017 4:15,7020,5.86
1/2/2017 4:30,7030,5.87
1/2/2017 4:45,7000,5.85
1/2/2017 5:00,7000,5.85
1/2/2017 5:15,6980,5.84
1/2/2017 5:30,6970,5.83
1/2/2017 5:45,6970,5.83
1/2/2017 6:00,6950,5.82
1/2/2017 6:15,6950,5.82
1/2/2017 6:30,6930,5.81
1/2/2017 6:45,6930,5.81
1/2/2017 7:00,6930,5.81
1/2/2017 7:15,6900,5.79
1/2/2017 7:30,6900,5.79
1/2/2017 7:45,6880,5.78
1/2/2017 8:00,6900,5.79
1/2/2017 8:15,6880,5.78
1/2/2017 8:30,6870,5.77
1/2/2017 8:45,6850,5.76
1/2/2017 9:00,6850,5.76
1/2/2017 9:15,6850,5.76
1/2/2017 9:30,6850,5.76
1/2/2017 9:45,6830,5.75
1/2/2017 10:00,6850,5.76
1/2/2017 10:15,6830,5.75
1/2/2017 10:30,6800,5.73
1/2/2017 10:45,6820,5.74
1/2/2017 11:00,6820,5.74
1/2/2017 11:15,6800,5.73
1/2/2017 11:30,6780,5.72
1/2/2017 11:45,6780,5.72
1/2/2017 12:00,6770,5.71
1/2/2017 12:15,6750,5.7
1/2/2017 12:30,6750,5.7
1/2/2017 12:45,6750,5.7
1/2/2017 13:00,6750,5.7
1/2/2017 13:15,6730,5.69
1/2/2017 13:30,6720,5.68
1/2/2017 13:45,6720,5.68
1/2/2017 14:00,6700,5.67
1/2/2017 14:15,6680,5.66
1/2/2017 14:30,6680,5.66
1/2/2017 14:45,6670,5.65
1/2/2017 15:00,6650,5.64
1/2/2017 15:15,6630,5.63
1/2/2017 15:30,6630,5.63
1/2/2017 15:45,6630,5.63
1/2/2017 16:00,6620,5.62
1/2/2017 16:15,6620,5.62
1/2/2017 16:30,6620,5.62
1/2/2017 16:45,6580,5.6
1/2/2017 17:00,6580,5.6
1/2/2017 17:15,6580,5.6
1/2/2017 17:30,6550,5.58
1/2/2017 17:45,6550,5.58
1/2/2017 18:00,6540,5.57
1/2/2017 18:15,6540,5.57
1/2/2017 18:30,6540,5.57
1/2/2017 18:45,6520,5.56
1/2/2017 19:00,6520,5.56
1/2/2017 19:15,6500,5.55
1/2/2017 19:30,6490,5.54
1/2/2017 19:45,6490,5.54
1/2/2017 20:00,6500,5.55
1/2/2017 20:15,6470,5.53
1/2/2017 20:30,6450,5.52
1/2/2017 20:45,6450,5.52
1/2/2017 21:00,6450,5.52
1/2/2017 21:15,6440,5.51
1/2/2017 21:30,6420,5.5
1/2/2017 21:45,6390,5.48
1/2/2017 22:00,6420,5.5
1/2/2017 22:15,6390,5.48
1/2/2017 22:30,6390,5.48
1/2/2017 22:45,6370,5.47
1/2/2017 23:00,6370,5.47
1/2/2017 23:15,6340,5.45
1/2/2017 23:30,6340,5.45
1/2/2017 23:45,6320,5.44
1/3/2017 0:00,6320,5.44
1/3/2017 0:15,6310,5.43
1/3/2017 0:30,6290,5.42
1/3/2017 0:45,6260,5.4
1/3/2017 1:00,6260,5.4
1/3/2017 1:15,6240,5.39
1/3/2017 1:30,6230,5.38
1/3/2017 1:45,6230,5.38
1/3/2017 2:00,6210,5.37
1/3/2017 2:15,6210,5.37
1/3/2017 2:30,6190,5.36
1/3/2017 2:45,6180,5.35
1/3/2017 3:00,6180,5.35
1/3/2017 3:15,6180,5.35
1/3/2017 3:30,6160,5.34
1/3/2017 3:45,6160,5.34
1/3/2017 4:00,6150,5.33
1/3/2017 4:15,6150,5.33
1/3/2017 4:30,6130,5.32
1/3/2017 4:45,6150,5.33
1/3/2017 5:00,6130,5.32
1/3/2017 5:15,6130,5.32
1/3/2017 5:30,6110,5.31
1/3/2017 5:45,6130,5.32
1/3/2017 6:00,6110,5.31
1/3/2017 6:15,6110,5.31
1/3/2017 6:30,6130,5.32
1/3/2017 6:45,6110,5.31
1/3/2017 7:00,6110,5.31
1/3/2017 7:15,6100,5.3
1/3/2017 7:30,6110,5.31
1/3/2017 7:45,6110,5.31
1/3/2017 8:00,6110,5.31
1/3/2017 8:15,6110,5.31
1/3/2017 8:30,6110,5.31
1/3/2017 8:45,6100,5.3
1/3/2017 9:00,6100,5.3
1/3/2017 9:15,6100,5.3
1/3/2017 9:30,6100,5.3
1/3/2017 9:45,6080,5.29
1/3/2017 10:00,6100,5.3
1/3/2017 10:15,6080,5.29
1/3/2017 10:30,6080,5.29
1/3/2017 10:45,6080,5.29
1/3/2017 11:00,6050,5.27
1/3/2017 11:15,6080,5.29
1/3/2017 11:30,6050,5.27
1/3/2017 11:45,6030,5.26
1/3/2017 12:00,6050,5.27
1/3/2017 12:15,6050,5.27
1/3/2017 12:30,6020,5.25
1/3/2017 12:45,6030,5.26
1/3/2017 13:00,6030,5.26
1/3/2017 13:15,6020,5.25
1/3/2017 13:30,6000,5.24
1/3/2017 13:45,5990,5.23
1/3/2017 14:00,6020,5.25
1/3/2017 14:15,6000,5.24
1/3/2017 14:30,6020,5.25
1/3/2017 14:45,6030,5.26
1/3/2017 15:00,6050,5.27
1/3/2017 15:15,6030,5.26
1/3/2017 15:30,6030,5.26
1/3/2017 15:45,6030,5.26
1/3/2017 16:00,6050,5.27
1/3/2017 16:15,6020,5.25
1/3/2017 16:30,6020,5.25
1/3/2017 16:45,6020,5.25
1/3/2017 17:00,6000,5.24
1/3/2017 17:15,6000,5.24
1/3/2017 17:30,6020,5.25
1/3/2017 17:45,6000,5.24
1/3/2017 18:00,6000,5.24
1/3/2017 18:15,5990,5.23
1/3/2017 18:30,5990,5.23
1/3/2017 18:45,5990,5.23
1/3/2017 19:00,6000,5.24
1/3/2017 19:15,5990,5.23
1/3/2017 19:30,5990,5.23
1/3/2017 19:45,5970,5.22
1/3/2017 20:00,5990,5.23
1/3/2017 20:15,5990,5.23
1/3/2017 20:30,5990,5.23
1/3/2017 20:45,5990,5.23
1/3/2017 21:00,6000,5.24
1/3/2017 21:15,5990,5.23
1/3/2017 21:30,5990,5.23
1/3/2017 21:45,5990,5.23
1/3/2017 22:00,6000,5.24
1/3/2017 22:15,6000,5.24
1/3/2017 22:30,6020,5.25
1/3/2017 22:45,6020,5.25
1/3/2017 23:00,6020,5.25
1/3/2017 23:15,6030,5.26
1/3/2017 23:30,6050,5.27
1/3/2017 23:45,6050,5.27
1/4/2017 0:00,6050,5.27
1/4/2017 0:15,6050,5.27
1/4/2017 0:30,6100,5.3
1/4/2017 0:45,6110,5.31
1/4/2017 1:00,6130,5.32
1/4/2017 1:15,6130,5.32
1/4/2017 1:30,6180,5.35
1/4/2017 1:45,6190,5.36
1/4/2017 2:00,6210,5.37
1/4/2017 2:15,6240,5.39
1/4/2017 2:30,6270,5.41
1/4/2017 2:45,6270,5.41
1/4/2017 3:00,6320,5.44
1/4/2017 3:15,6350,5.46
1/4/2017 3:30,6390,5.48
1/4/2017 3:45,6440,5.51
1/4/2017 4:00,6480,5.54
1/4/2017 4:15,6520,5.56
1/4/2017 4:30,6570,5.59
1/4/2017 4:45,6630,5.63
1/4/2017 5:00,6660,5.65
1/4/2017 5:15,6730,5.69
1/4/2017 5:30,6780,5.72
1/4/2017 5:45,6850,5.76
1/4/2017 6:00,6910,5.8
1/4/2017 6:15,6980,5.84
1/4/2017 6:30,7060,5.89
1/4/2017 6:45,7130,5.93
1/4/2017 7:00,7210,5.98
1/4/2017 7:15,7320,6.04
1/4/2017 7:30,7450,6.12
1/4/2017 7:45,7540,6.17
1/4/2017 8:00,7660,6.24
1/4/2017 8:15,7810,6.33
1/4/2017 8:30,7950,6.41
1/4/2017 8:45,8110,6.5
1/4/2017 9:00,8290,6.6
1/4/2017 9:15,8470,6.7
1/4/2017 9:30,8660,6.81
1/4/2017 9:45,8840,6.91
1/4/2017 10:00,9060,7.03
1/4/2017 10:15,9320,7.17
1/4/2017 10:30,9540,7.29
1/4/2017 10:45,9820,7.44
1/4/2017 11:00,10000,7.56
1/4/2017 11:15,10300,7.67
1/4/2017 11:30,10500,7.82
1/4/2017 11:45,10800,7.96
1/4/2017 12:00,11100,8.1
1/4/2017 12:15,11400,8.24
1/4/2017 12:30,11600,8.37
1/4/2017 12:45,11900,8.5
1/4/2017 13:00,12100,8.63
1/4/2017 13:15,12400,8.77
1/4/2017 13:30,12700,8.91
1/4/2017 13:45,13000,9.04
1/4/2017 14:00,13200,9.16
1/4/2017 14:15,13500,9.28
1/4/2017 14:30,13700,9.4
1/4/2017 14:45,13900,9.5
1/4/2017 15:00,14200,9.63
1/4/2017 15:15,14500,9.75
1/4/2017 15:30,14700,9.85
1/4/2017 15:45,14900,9.93
1/4/2017 16:00,15100,10.06
1/4/2017 16:15,15400,10.17
1/4/2017 16:30,15600,10.26
1/4/2017 16:45,15800,10.34
1/4/2017 17:00,16000,10.43
1/4/2017 17:15,16200,10.54
1/4/2017 17:30,16300,10.6
1/4/2017 17:45,16500,10.69
1/4/2017 18:00,16700,10.76
1/4/2017 18:15,16800,10.82
1/4/2017 18:30,17100,10.93
1/4/2017 18:45,17200,10.99
1/4/2017 19:00,17300,11.05
1/4/2017 19:15,17500,11.11
1/4/2017 19:30,17700,11.2
1/4/2017 19:45,17800,11.24
1/4/2017 20:00,17900,11.31
1/4/2017 20:15,18100,11.36
1/4/2017 20:30,18200,11.44
1/4/2017 20:45,18200,11.44
1/4/2017 21:00,18400,11.52
1/4/2017 21:15,18600,11.6
1/4/2017 21:30,18700,11.63
1/4/2017 21:45,18800,11.68
1/4/2017 22:00,19000,11.75
1/4/2017 22:15,19000,11.77
1/4/2017 22:30,19100,11.81
1/4/2017 22:45,19200,11.84
1/4/2017 23:00,19300,11.91
1/4/2017 23:15,19400,11.92
1/4/2017 23:30,19400,11.94
1/4/2017 23:45,19600,12
1/5/2017 0:00,19600,12.02
1/5/2017 0:15,19600,12.04
1/5/2017 0:30,19700,12.07
1/5/2017 0:45,19800,12.11
1/5/2017 1:00,19900,12.13
1/5/2017 1:15,19900,12.16
1/5/2017 1:30,20000,12.18
1/5/2017 1:45,20000,12.18
1/5/2017 2:00,20000,12.18
1/5/2017 2:15,20100,12.22
1/5/2017 2:30,20100,12.22
1/5/2017 2:45,20100,12.24
1/5/2017 3:00,20200,12.26
1/5/2017 3:15,20200,12.26
1/5/2017 3:30,20200,12.26
1/5/2017 3:45,20200,12.29
1/5/2017 4:00,20300,12.3
1/5/2017 4:15,20300,12.31
1/5/2017 4:30,20300,12.3
1/5/2017 4:45,20300,12.32
1/5/2017 5:00,20300,12.31
1/5/2017 5:15,20300,12.32
1/5/2017 5:30,20300,12.3
1/5/2017 5:45,20300,12.31
1/5/2017 6:00,20300,12.32
1/5/2017 6:15,20300,12.3
1/5/2017 6:30,20300,12.31
1/5/2017 6:45,20300,12.31
1/5/2017 7:00,20200,12.29
1/5/2017 7:15,20300,12.3
1/5/2017 7:30,20200,12.29
1/5/2017 7:45,20300,12.31
1/5/2017 8:00,20200,12.28
1/5/2017 8:15,20200,12.29
1/5/2017 8:30,20200,12.27
1/5/2017 8:45,20200,12.28
1/5/2017 9:00,20200,12.27
1/5/2017 9:15,20200,12.27
1/5/2017 9:30,20200,12.28
1/5/2017 9:45,20200,12.25
1/5/2017 10:00,20200,12.25
1/5/2017 10:15,20200,12.25
1/5/2017 10:30,20100,12.24
1/5/2017 10:45,20100,12.21
1/5/2017 11:00,20000,12.2
1/5/2017 11:15,20000,12.18
1/5/2017 11:30,20000,12.17
1/5/2017 11:45,20000,12.17
1/5/2017 12:00,19900,12.16
1/5/2017 12:15,19900,12.16
1/5/2017 12:30,19800,12.11
1/5/2017 12:45,19800,12.11
1/5/2017 13:00,19800,12.11
1/5/2017 13:15,19700,12.08
1/5/2017 13:30,19700,12.08
1/5/2017 13:45,19700,12.07
1/5/2017 14:00,19700,12.06
1/5/2017 14:15,19600,12.02
1/5/2017 14:30,19600,12.02
1/5/2017 14:45,19600,12
1/5/2017 15:00,19500,11.97
1/5/2017 15:15,19400,11.94
1/5/2017 15:30,19400,11.94
1/5/2017 15:45,19400,11.92
1/5/2017 16:00,19300,11.9
1/5/2017 16:15,19300,11.9
1/5/2017 16:30,19200,11.86
1/5/2017 16:45,19200,11.83
1/5/2017 17:00,19100,11.81
1/5/2017 17:15,19100,11.79
1/5/2017 17:30,19000,11.78
1/5/2017 17:45,19000,11.76
1/5/2017 18:00,19000,11.76
1/5/2017 18:15,18800,11.7
1/5/2017 18:30,18800,11.66
1/5/2017 18:45,18800,11.66
1/5/2017 19:00,18700,11.63
1/5/2017 19:15,18600,11.59
1/5/2017 19:30,18500,11.56
1/5/2017 19:45,18500,11.54
1/5/2017 20:00,18400,11.51
1/5/2017 20:15,18400,11.49
1/5/2017 20:30,18300,11.47
1/5/2017 20:45,18200,11.43
1/5/2017 21:00,18100,11.4
1/5/2017 21:15,18100,11.36
1/5/2017 21:30,18000,11.34
1/5/2017 21:45,18000,11.32
1/5/2017 22:00,17900,11.29
1/5/2017 22:15,17800,11.26
1/5/2017 22:30,17700,11.22
1/5/2017 22:45,17700,11.2
1/5/2017 23:00,17600,11.16
1/5/2017 23:15,17500,11.13
1/5/2017 23:30,17500,11.1
1/5/2017 23:45,17300,11.05
1/6/2017 0:00,17300,11.05
1/6/2017 0:15,17300,11.02
1/6/2017 0:30,17200,10.97
1/6/2017 0:45,17100,10.93
1/6/2017 1:00,17000,10.89
1/6/2017 1:15,17000,10.88
1/6/2017 1:30,16900,10.84
1/6/2017 1:45,16800,10.83
1/6/2017 2:00,16800,10.81
1/6/2017 2:15,16700,10.77
1/6/2017 2:30,16600,10.74
1/6/2017 2:45,16500,10.69
1/6/2017 3:00,16500,10.68
1/6/2017 3:15,16400,10.64
1/6/2017 3:30,16400,10.64
1/6/2017 3:45,16300,10.6
1/6/2017 4:00,16300,10.6
1/6/2017 4:15,16300,10.58
1/6/2017 4:30,16200,10.56
1/6/2017 4:45,16100,10.52
1/6/2017 5:00,16200,10.54
1/6/2017 5:15,16200,10.54
1/6/2017 5:30,16100,10.51
1/6/2017 5:45,16100,10.5
1/6/2017 6:00,16100,10.48
1/6/2017 6:15,16000,10.47
1/6/2017 6:30,16000,10.46
1/6/2017 6:45,16000,10.46
1/6/2017 7:00,16000,10.44
1/6/2017 7:15,15900,10.43
1/6/2017 7:30,15900,10.43
1/6/2017 7:45,15900,10.41
1/6/2017 8:00,15900,10.42
1/6/2017 8:15,15900,10.42
1/6/2017 8:30,15900,10.41
1/6/2017 8:45,15900,10.41
1/6/2017 9:00,15900,10.4
1/6/2017 9:15,15900,10.41
1/6/2017 9:30,15800,10.38
1/6/2017 9:45,15800,10.36
1/6/2017 10:00,15800,10.35
1/6/2017 10:15,15800,10.35
1/6/2017 10:30,15800,10.35
1/6/2017 10:45,15700,10.31
1/6/2017 11:00,15700,10.31
1/6/2017 11:15,15600,10.28
1/6/2017 11:30,15600,10.28
1/6/2017 11:45,15600,10.26
1/6/2017 12:00,15600,10.25
1/6/2017 12:15,15500,10.24
1/6/2017 12:30,15500,10.22
1/6/2017 12:45,15500,10.22
1/6/2017 13:00,15500,10.22
1/6/2017 13:15,15500,10.22
1/6/2017 13:30,15400,10.2
1/6/2017 13:45,15400,10.17
1/6/2017 14:00,15400,10.18
1/6/2017 14:15,15400,10.16
1/6/2017 14:30,15300,10.15
1/6/2017 14:45,15400,10.16
1/6/2017 15:00,15200,10.11
1/6/2017 15:15,15200,10.1
1/6/2017 15:30,15200,10.1
1/6/2017 15:45,15200,10.08
1/6/2017 16:00,15100,10.06
1/6/2017 16:15,15100,10.05
1/6/2017 16:30,15000,10.02
1/6/2017 16:45,15000,10.01
1/6/2017 17:00,15000,10.01
1/6/2017 17:15,14900,9.97
1/6/2017 17:30,14900,9.96
1/6/2017 17:45,14900,9.93
1/6/2017 18:00,14900,9.94
1/6/2017 18:15,14800,9.91
1/6/2017 18:30,14700,9.88
1/6/2017 18:45,14700,9.87
1/6/2017 19:00,14700,9.84
1/6/2017 19:15,14600,9.82
1/6/2017 19:30,14600,9.8
1/6/2017 19:45,14600,9.8
1/6/2017 20:00,14500,9.77
1/6/2017 20:15,14500,9.75
1/6/2017 20:30,14400,9.72
1/6/2017 20:45,14400,9.7
1/6/2017 21:00,14300,9.69
1/6/2017 21:15,14300,9.65
1/6/2017 21:30,14200,9.63
1/6/2017 21:45,14200,9.62
1/6/2017 22:00,14100,9.57
1/6/2017 22:15,14100,9.57
1/6/2017 22:30,14000,9.55
1/6/2017 22:45,14000,9.53
1/6/2017 23:00,14000,9.51
1/6/2017 23:15,13900,9.5
1/6/2017 23:30,13800,9.46
1/6/2017 23:45,13800,9.43
1/7/2017 0:00,13800,9.43
1/7/2017 0:15,13700,9.4
1/7/2017 0:30,13700,9.38
1/7/2017 0:45,13600,9.36
1/7/2017 1:00,13600,9.34
1/7/2017 1:15,13600,9.32
1/7/2017 1:30,13500,9.31
1/7/2017 1:45,13500,9.29
1/7/2017 2:00,13400,9.27
1/7/2017 2:15,13400,9.26
1/7/2017 2:30,13400,9.23
1/7/2017 2:45,13300,9.22
1/7/2017 3:00,13300,9.2
1/7/2017 3:15,13300,9.19
1/7/2017 3:30,13200,9.17
1/7/2017 3:45,13200,9.14
1/7/2017 4:00,13100,9.12
1/7/2017 4:15,13100,9.1
1/7/2017 4:30,13100,9.09
1/7/2017 4:45,13000,9.06
1/7/2017 5:00,13000,9.05
1/7/2017 5:15,12900,9.02
1/7/2017 5:30,12900,9
1/7/2017 5:45,12800,8.98
1/7/2017 6:00,12800,8.96
1/7/2017 6:15,12800,8.94
1/7/2017 6:30,12700,8.92
1/7/2017 6:45,12700,8.91
1/7/2017 7:00,12600,8.88
1/7/2017 7:15,12600,8.84
1/7/2017 7:30,12500,8.82
1/7/2017 7:45,12500,8.8
1/7/2017 8:00,12400,8.77
1/7/2017 8:15,12400,8.75
1/7/2017 8:30,12300,8.72
1/7/2017 8:45,12300,8.69
1/7/2017 9:00,12200,8.67
1/7/2017 9:15,12200,8.64
1/7/2017 9:30,12100,8.62
1/7/2017 9:45,12100,8.6
1/7/2017 10:00,12100,8.59
1/7/2017 10:15,12000,8.57
1/7/2017 10:30,12000,8.55
1/7/2017 10:45,11900,8.52
1/7/2017 11:00,11900,8.5
1/7/2017 11:15,11900,8.49
1/7/2017 11:30,11800,8.46
1/7/2017 11:45,11700,8.43
1/7/2017 12:00,11700,8.41
1/7/2017 12:15,11600,8.38
1/7/2017 12:30,11600,8.36
1/7/2017 12:45,11600,8.34
1/7/2017 13:00,11500,8.32
1/7/2017 13:15,11500,8.3
1/7/2017 13:30,11400,8.26
1/7/2017 13:45,11400,8.25
1/7/2017 14:00,11300,8.23
1/7/2017 14:15,11300,8.23
1/7/2017 14:30,11300,8.2
1/7/2017 14:45,11300,8.19
1/7/2017 15:00,11200,8.17
1/7/2017 15:15,11200,8.16
1/7/2017 15:30,11200,8.15
1/7/2017 15:45,11200,8.14
1/7/2017 16:00,11100,8.12
1/7/2017 16:15,11100,8.1
1/7/2017 16:30,11100,8.09
1/7/2017 16:45,11000,8.07
1/7/2017 17:00,11000,8.05
1/7/2017 17:15,11000,8.04
1/7/2017 17:30,10900,8.02
1/7/2017 17:45,10900,7.99
1/7/2017 18:00,10900,7.99
1/7/2017 18:15,10800,7.96
1/7/2017 18:30,10800,7.94
1/7/2017 18:45,10700,7.93
1/7/2017 19:00,10700,7.91
1/7/2017 19:15,10700,7.89
1/7/2017 19:30,10600,7.87
1/7/2017 19:45,10600,7.85
1/7/2017 20:00,10500,7.82
1/7/2017 20:15,10500,7.8
1/7/2017 20:30,10400,7.77
1/7/2017 20:45,10400,7.76
1/7/2017 21:00,10400,7.74
1/7/2017 21:15,10300,7.72
1/7/2017 21:30,10300,7.7
1/7/2017 21:45,10200,7.67
1/7/2017 22:00,10200,7.66
1/7/2017 22:15,10200,7.64
1/7/2017 22:30,10200,7.62
1/7/2017 22:45,10100,7.6
1/7/2017 23:00,10100,7.57
1/7/2017 23:15,10000,7.56
1/7/2017 23:30,10000,7.54
1/7/2017 23:45,9970,7.52
1/8/2017 0:00,9930,7.5
1/8/2017 0:15,9890,7.48
1/8/2017 0:30,9870,7.47
1/8/2017 0:45,9810,7.44
1/8/2017 1:00,9800,7.43
1/8/2017 1:15,9740,7.4
1/8/2017 1:30,9680,7.37
1/8/2017 1:45,9680,7.37
1/8/2017 2:00,9650,7.35
1/8/2017 2:15,9590,7.32
1/8/2017 2:30,9550,7.3
1/8/2017 2:45,9520,7.28
1/8/2017 3:00,9500,7.27
1/8/2017 3:15,9440,7.24
1/8/2017 3:30,9390,7.21
1/8/2017 3:45,9350,7.19
1/8/2017 4:00,9330,7.18
1/8/2017 4:15,9280,7.15
1/8/2017 4:30,9240,7.13
1/8/2017 4:45,9180,7.1
1/8/2017 5:00,9150,7.08
1/8/2017 5:15,9110,7.06
1/8/2017 5:30,9060,7.03
1/8/2017 5:45,9020,7.01
1/8/2017 6:00,8980,6.99
1/8/2017 6:15,8950,6.97
1/8/2017 6:30,8870,6.93
1/8/2017 6:45,8860,6.92
1/8/2017 7:00,8820,6.9
1/8/2017 7:15,8760,6.87
1/8/2017 7:30,8730,6.85
1/8/2017 7:45,8670,6.82
1/8/2017 8:00,8640,6.8
1/8/2017 8:15,8620,6.79
1/8/2017 8:30,8600,6.78
1/8/2017 8:45,8550,6.75
1/8/2017 9:00,8530,6.74
1/8/2017 9:15,8510,6.73
1/8/2017 9:30,8480,6.71
1/8/2017 9:45,8460,6.7
1/8/2017 10:00,8420,6.68
1/8/2017 10:15,8390,6.66
1/8/2017 10:30,8350,6.64
1/8/2017 10:45,8330,6.63
1/8/2017 11:00,8300,6.61
1/8/2017 11:15,8280,6.6
1/8/2017 11:30,8230,6.57
1/8/2017 11:45,8210,6.56
1/8/2017 12:00,8180,6.54
1/8/2017 12:15,8140,6.52
1/8/2017 12:30,8120,6.51
1/8/2017 12:45,8110,6.5
1/8/2017 13:00,8070,6.48
1/8/2017 13:15,8030,6.46
1/8/2017 13:30,8000,6.44
1/8/2017 13:45,7980,6.43
1/8/2017 14:00,7960,6.42
1/8/2017 14:15,7930,6.4
1/8/2017 14:30,7910,6.39
1/8/2017 14:45,7900,6.38
1/8/2017 15:00,7880,6.37
1/8/2017 15:15,7840,6.35
1/8/2017 15:30,7810,6.33
1/8/2017 15:45,7790,6.32
1/8/2017 16:00,7790,6.32
1/8/2017 16:15,7790,6.32
1/8/2017 16:30,7770,6.31
1/8/2017 16:45,7740,6.29
1/8/2017 17:00,7740,6.29
1/8/2017 17:15,7700,6.27
1/8/2017 17:30,7690,6.26
1/8/2017 17:45,7650,6.24
1/8/2017 18:00,7650,6.24
1/8/2017 18:15,7620,6.22
1/8/2017 18:30,7620,6.22
1/8/2017 18:45,7600,6.21
1/8/2017 19:00,7550,6.18
1/8/2017 19:15,7530,6.17
1/8/2017 19:30,7510,6.16
1/8/2017 19:45,7480,6.14
1/8/2017 20:00,7460,6.13
1/8/2017 20:15,7450,6.12
1/8/2017 20:30,7430,6.11
1/8/2017 20:45,7380,6.08
1/8/2017 21:00,7380,6.08
1/8/2017 21:15,7340,6.06
1/8/2017 21:30,7330,6.05
1/8/2017 21:45,7290,6.03
1/8/2017 22:00,7280,6.02
1/8/2017 22:15,7260,6.01
1/8/2017 22:30,7230,5.99
1/8/2017 22:45,7230,5.99
1/8/2017 23:00,7210,5.98
1/8/2017 23:15,7170,5.96
1/8/2017 23:30,7140,5.94
1/8/2017 23:45,7140,5.94
1/9/2017 0:00,7120,5.93
1/9/2017 0:15,7120,5.93
1/9/2017 0:30,7110,5.92
1/9/2017 0:45,7070,5.9
1/9/2017 1:00,7060,5.89
1/9/2017 1:15,7020,5.87
1/9/2017 1:30,7040,5.88
1/9/2017 1:45,7040,5.88
1/9/2017 2:00,7010,5.86
1/9/2017 2:15,6990,5.85
1/9/2017 2:30,6970,5.84
1/9/2017 2:45,6990,5.85
1/9/2017 3:00,6970,5.84
1/9/2017 3:15,6970,5.84
1/9/2017 3:30,6940,5.82
1/9/2017 3:45,6940,5.82
1/9/2017 4:00,6920,5.81
1/9/2017 4:15,6920,5.81
1/9/2017 4:30,6890,5.79
1/9/2017 4:45,6910,5.8
1/9/2017 5:00,6870,5.78
1/9/2017 5:15,6890,5.79
1/9/2017 5:30,6870,5.78
1/9/2017 5:45,6870,5.78
1/9/2017 6:00,6860,5.77
1/9/2017 6:15,6870,5.78
1/9/2017 6:30,6860,5.77
1/9/2017 6:45,6860,5.77
1/9/2017 7:00,6860,5.77
1/9/2017 7:15,6860,5.77
1/9/2017 7:30,6840,5.76
1/9/2017 7:45,6820,5.75
1/9/2017 8:00,6840,5.76
1/9/2017 8:15,6820,5.75
1/9/2017 8:30,6820,5.75
1/9/2017 8:45,6810,5.74
1/9/2017 9:00,6810,5.74
1/9/2017 9:15,6810,5.74
1/9/2017 9:30,6810,5.74
1/9/2017 9:45,6810,5.74
1/9/2017 10:00,6810,5.74
1/9/2017 10:15,6770,5.72
1/9/2017 10:30,6810,5.74
1/9/2017 10:45,6770,5.72
1/9/2017 11:00,6770,5.72
1/9/2017 11:15,6770,5.72
1/9/2017 11:30,6760,5.71
1/9/2017 11:45,6760,5.71
1/9/2017 12:00,6740,5.7
1/9/2017 12:15,6760,5.71
1/9/2017 12:30,6760,5.71
1/9/2017 12:45,6740,5.7
1/9/2017 13:00,6740,5.7
1/9/2017 13:15,6740,5.7
1/9/2017 13:30,6740,5.7
1/9/2017 13:45,6720,5.69
1/9/2017 14:00,6720,5.69
1/9/2017 14:15,6720,5.69
1/9/2017 14:30,6710,5.68
1/9/2017 14:45,6690,5.67
1/9/2017 15:00,6690,5.67
1/9/2017 15:15,6690,5.67
1/9/2017 15:30,6670,5.66
1/9/2017 15:45,6670,5.66
1/9/2017 16:00,6660,5.65
1/9/2017 16:15,6670,5.66
1/9/2017 16:30,6660,5.65
1/9/2017 16:45,6660,5.65
1/9/2017 17:00,6660,5.65
1/9/2017 17:15,6670,5.66
1/9/2017 17:30,6660,5.65
1/9/2017 17:45,6660,5.65
1/9/2017 18:00,6660,5.65
1/9/2017 18:15,6660,5.65
1/9/2017 18:30,6660,5.65
1/9/2017 18:45,6660,5.65
1/9/2017 19:00,6640,5.64
1/9/2017 19:15,6660,5.65
1/9/2017 19:30,6660,5.65
1/9/2017 19:45,6670,5.66
1/9/2017 20:00,6670,5.66
1/9/2017 20:15,6690,5.67
1/9/2017 20:30,6690,5.67
1/9/2017 20:45,6740,5.7
1/9/2017 21:00,6740,5.7
1/9/2017 21:15,6760,5.71
1/9/2017 21:30,6770,5.72
1/9/2017 21:45,6790,5.73
1/9/2017 22:00,6810,5.74
1/9/2017 22:15,6840,5.76
1/9/2017 22:30,6860,5.77
1/9/2017 22:45,6890,5.79
1/9/2017 23:00,6910,5.8
1/9/2017 23:15,6940,5.82
1/9/2017 23:30,6960,5.83
1/9/2017 23:45,6990,5.85
1/10/2017 0:00,7010,5.86
1/10/2017 0:15,7040,5.88
1/10/2017 0:30,7060,5.89
1/10/2017 0:45,7090,5.91
1/10/2017 1:00,7110,5.92
1/10/2017 1:15,7120,5.93
1/10/2017 1:30,7140,5.94
1/10/2017 1:45,7160,5.95
1/10/2017 2:00,7160,5.95
1/10/2017 2:15,7170,5.96
1/10/2017 2:30,7160,5.95
1/10/2017 2:45,7210,5.98
1/10/2017 3:00,7190,5.97
1/10/2017 3:15,7190,5.97
1/10/2017 3:30,7210,5.98
1/10/2017 3:45,7220,5.99
1/10/2017 4:00,7210,5.98
1/10/2017 4:15,7210,5.98
1/10/2017 4:30,7220,5.99
1/10/2017 4:45,7220,5.99
1/10/2017 5:00,7220,5.99
1/10/2017 5:15,7190,5.97
1/10/2017 5:30,7210,5.98
1/10/2017 5:45,7210,5.98
1/10/2017 6:00,7210,5.98
1/10/2017 6:15,7170,5.96
1/10/2017 6:30,7190,5.97
1/10/2017 6:45,7170,5.96
1/10/2017 7:00,7170,5.96
1/10/2017 7:15,7170,5.96
1/10/2017 7:30,7170,5.96
1/10/2017 7:45,7170,5.96
1/10/2017 8:00,7160,5.95
1/10/2017 8:15,7160,5.95
1/10/2017 8:30,7140,5.94
1/10/2017 8:45,7160,5.95
1/10/2017 9:00,7140,5.94
1/10/2017 9:15,7140,5.94
1/10/2017 9:30,7140,5.94
1/10/2017 9:45,7120,5.93
1/10/2017 10:00,7120,5.93
1/10/2017 10:15,7110,5.92
1/10/2017 10:30,7120,5.93
1/10/2017 10:45,7070,5.9
1/10/2017 11:00,7090,5.91
1/10/2017 11:15,7070,5.9
1/10/2017 11:30,7090,5.91
1/10/2017 11:45,7070,5.9
1/10/2017 12:00,7090,5.91
1/10/2017 12:15,7050,5.89
1/10/2017 12:30,7070,5.9
1/10/2017 12:45,7070,5.9
1/10/2017 13:00,7070,5.9
1/10/2017 13:15,7040,5.88